Total_Precipitation_Accumulation
1.46 1.51 2.32 3.63 4.24 3.56 2.98 2.28 1.47 1.46 1.26 0.85 0.69 0.78 1.25 1.89 2.32 2.76 2.86 2.38 1.63 1.40 1.55 2.32 3.19 3.04 2.86 2.98 3.11 3.10 3.02 2.97 2.91 2.73 2.51 2.38 2.17 2.08 2.11 2.08 2.01 1.85 1.79 1.72 1.96 2.37 2.67 2.80 2.62
1.33 2.14 3.19 4.32 3.96 3.17 3.01 2.23 1.65 1.25 0.82 0.59 0.56 0.64 0.92 1.06 1.03 1.69 2.88 2.65 1.56 1.30 1.40 1.75 2.95 3.05 2.91 3.02 3.08 2.93 2.78 2.62 2.46 2.43 2.38 2.26 2.18 2.05 2.03 2.04 2.03 1.87 1.79 1.76 1.91 2.25 2.39 2.45 2.37
1.70 2.70 3.73 3.90 2.97 2.82 2.85 2.05 1.47 0.77 0.51 0.56 0.63 0.62 0.84 1.16 1.26 1.92 2.56 1.99 1.38 1.21 1.35 1.86 2.80 2.90 2.85 2.82 2.83 2.87 2.68 2.49 2.25 2.11 2.15 2.09 2.07 1.94 1.97 2.01 1.90 1.79 1.79 1.71 1.77 2.05 2.26 2.44 2.31
2.06 2.94 3.25 2.88 2.44 1.97 1.68 1.56 1.06 0.83 0.64 0.42 0.52 0.70 0.69 1.07 1.38 1.71 1.67 1.38 1.25 1.24 1.32 1.79 2.50 2.67 2.70 2.63 2.60 2.53 2.38 2.22 2.13 1.99 2.05 2.08 2.03 1.94 1.91 1.81 1.79 1.79 1.82 1.77 1.71 1.84 2.14 2.47 2.40
2.39 2.99 2.87 2.33 2.24 1.72 1.29 1.15 0.89 0.98 0.88 0.55 0.48 0.74 0.95 1.26 1.35 1.45 1.41 1.24 1.27 1.32 1.27 1.61 2.27 2.41 2.51 2.45 2.29 2.24 2.23 2.08 2.00 1.94 1.85 1.87 1.91 1.94 1.89 1.87 1.88 1.79 1.82 1.87 1.82 1.90 1.98 2.20 2.31
2.58 2.67 2.59 2.35 2.37 1.96 1.61 1.19 0.93 0.98 0.80 0.56 0.52 0.79 1.16 1.44 1.53 1.47 1.35 1.40 1.37 1.35 1.26 1.39 1.97 2.23 2.28 2.24 2.21 2.18 2.12 2.01 1.88 1.76 1.70 1.73 1.78 1.76 1.67 1.69 1.74 1.70 1.68 1.76 1.74 1.81 1.79 1.81 2.03
2.83 2.69 2.30 1.96 2.23 2.48 1.90 1.19 1.06 1.07 0.97 0.71 0.53 0.89 1.24 1.49 1.52 1.30 1.25 1.53 1.64 1.58 1.43 1.33 1.47 1.72 1.93 2.16 2.21 2.28 2.26 2.19 2.02 1.81 1.69 1.73 1.70 1.56 1.48 1.60 1.70 1.75 1.77 1.89 1.89 1.91 1.84 1.81 2.00
2.24 2.34 1.95 1.97 2.30 2.57 1.81 1.19 0.94 0.93 0.94 0.62 0.58 0.98 1.38 1.37 1.35 1.31 1.25 1.43 1.50 1.54 1.49 1.38 1.42 1.50 1.60 1.84 2.16 2.44 2.53 2.59 2.30 1.92 1.79 1.68 1.55 1.48 1.55 1.62 1.75 1.91 2.03 2.19 2.23 2.13 1.97 1.95 2.01
2.14 2.53 2.37 2.42 2.40 2.01 1.34 1.24 0.93 0.72 0.78 0.73 0.61 0.67 0.88 0.85 0.93 1.14 1.24 1.26 1.18 1.14 1.20 1.25 1.32 1.43 1.52 1.62 1.76 2.22 2.45 2.59 2.21 1.75 1.76 1.63 1.45 1.37 1.52 1.61 2.06 2.18 2.28 2.51 2.63 2.43 2.16 1.96 1.90
2.25 2.42 2.18 1.80 1.56 1.41 1.25 1.14 0.90 0.96 1.11 1.00 0.84 0.75 0.76 0.82 0.95 1.05 1.06 1.07 1.01 0.97 0.91 0.92 0.93 1.04 1.24 1.35 1.66 2.03 2.09 2.19 1.85 1.61 1.61 1.57 1.65 1.59 1.33 1.50 2.04 2.29 2.38 2.24 2.26 2.35 2.06 1.69 1.44
1.72 1.83 1.44 1.16 0.91 0.94 0.99 0.91 0.74 0.93 1.19 0.92 0.81 0.81 0.83 0.88 0.90 0.97 0.96 0.84 0.79 0.74 0.73 0.72 0.77 0.81 1.00 1.35 1.64 1.92 2.06 2.14 2.10 2.03 1.77 1.75 1.66 1.47 1.33 1.37 1.49 1.62 1.72 1.62 1.67 1.75 1.58 1.50 1.36
1.54 1.33 1.10 1.04 0.81 0.85 0.83 0.77 0.83 0.79 0.78 0.62 0.58 0.64 0.82 0.94 0.90 0.84 0.87 0.83 0.75 0.76 0.78 0.71 0.64 0.71 0.88 1.07 1.30 1.66 1.91 1.97 1.94 1.84 1.52 1.55 1.61 1.46 1.42 1.54 1.66 1.64 1.68 1.82 1.79 1.78 1.68 1.51 1.31
1.49 1.25 0.97 0.78 0.74 0.76 0.79 0.80 0.80 0.71 0.58 0.54 0.53 0.64 0.83 0.95 0.95 0.83 0.76 0.73 0.75 0.85 0.95 0.91 0.76 0.74 0.84 0.98 1.03 1.23 1.48 1.56 1.83 1.84 1.43 1.30 1.36 1.46 1.48 1.40 1.61 1.72 1.77 1.84 1.87 1.80 1.69 1.65 1.47
1.31 1.08 0.92 0.81 0.79 0.74 0.84 0.83 0.80 0.87 0.64 0.59 0.62 0.75 0.86 0.95 0.95 0.83 0.73 0.67 0.64 0.70 0.84 0.91 0.92 0.93 0.94 0.95 0.95 0.98 1.03 1.17 1.31 1.35 1.17 1.12 1.15 1.30 1.51 1.41 1.41 1.55 1.75 1.89 1.89 1.84 1.89 1.85 1.64
0.93 1.02 1.11 1.02 0.93 0.87 0.96 1.17 0.91 0.78 0.66 0.63 0.66 0.76 0.76 0.79 0.78 0.70 0.65 0.56 0.54 0.59 0.69 0.81 0.88 0.94 1.01 1.10 1.11 1.01 0.98 1.12 1.15 1.10 1.09 1.11 1.09 1.22 1.47 1.40 1.31 1.33 1.50 1.69 1.94 2.02 2.03 1.80 1.72
1.13 1.23 1.59 1.21 1.08 1.00 1.16 1.35 0.83 0.72 0.70 0.67 0.66 0.79 0.76 0.65 0.58 0.55 0.58 0.56 0.55 0.61 0.64 0.72 0.68 0.79 0.94 1.13 1.22 1.20 1.16 1.22 1.18 1.04 0.99 0.97 0.98 1.02 1.27 1.37 1.28 1.27 1.47 1.74 2.02 2.22 2.27 2.06 2.02
1.52 1.47 1.41 1.27 1.07 0.96 0.94 1.01 0.75 0.63 0.61 0.63 0.64 0.74 0.75 0.60 0.52 0.48 0.48 0.53 0.62 0.67 0.65 0.66 0.70 0.72 0.77 0.94 1.08 1.11 1.11 1.17 1.14 1.07 1.04 0.96 0.92 0.95 1.21 1.44 1.48 1.46 1.65 1.80 1.81 2.08 2.24 2.34 2.25
1.16 1.03 1.04 1.03 0.91 0.85 0.81 0.74 0.66 0.56 0.55 0.62 0.65 0.69 0.67 0.52 0.46 0.45 0.47 0.56 0.69 0.76 0.76 0.78 0.75 0.70 0.71 0.76 0.89 1.01 0.99 1.02 1.10 1.06 1.08 1.10 1.14 1.16 1.39 1.64 1.67 1.75 1.85 1.97 2.19 2.48 2.49 2.41 2.44
0.88 0.84 0.86 0.76 0.63 0.71 0.75 0.76 0.70 0.65 0.59 0.60 0.62 0.57 0.60 0.54 0.49 0.43 0.46 0.50 0.63 0.69 0.68 0.73 0.78 0.73 0.67 0.63 0.72 0.83 0.89 1.01 1.12 1.22 1.31 1.30 1.28 1.34 1.57 1.77 2.00 2.14 2.05 2.08 2.36 2.67 2.77 2.55 2.40
0.90 0.93 0.91 0.82 0.66 0.69 0.73 0.76 0.68 0.64 0.60 0.52 0.51 0.51 0.54 0.48 0.44 0.40 0.45 0.50 0.52 0.59 0.59 0.64 0.68 0.65 0.59 0.54 0.61 0.74 0.89 1.01 1.18 1.39 1.64 1.56 1.42 1.44 1.46 1.74 1.93 2.03 2.17 2.21 2.32 2.65 2.99 2.74 2.46
0.81 0.77 0.72 0.83 0.77 0.80 0.89 0.94 0.77 0.67 0.62 0.53 0.49 0.53 0.58 0.54 0.45 0.39 0.41 0.49 0.48 0.51 0.58 0.61 0.64 0.63 0.63 0.68 0.85 1.16 1.47 1.64 1.71 1.75 2.00 2.04 1.87 1.79 1.75 1.79 1.93 2.02 2.23 2.40 2.43 2.51 2.89 2.93 2.65
0.87 0.62 0.56 0.73 0.98 1.00 0.88 1.06 0.75 0.65 0.71 0.58 0.54 0.50 0.53 0.54 0.54 0.49 0.45 0.49 0.44 0.49 0.59 0.66 0.65 0.72 0.73 0.87 1.18 1.62 1.98 2.16 2.13 2.20 2.28 2.39 2.29 2.11 2.11 2.12 2.22 2.17 2.17 2.29 2.27 2.27 2.54 2.89 2.93
0.83 0.68 0.71 0.80 0.92 0.89 0.68 0.77 0.66 0.65 0.73 0.62 0.58 0.54 0.53 0.49 0.50 0.53 0.52 0.54 0.53 0.56 0.63 0.75 0.84 0.98 1.16 1.27 1.42 1.74 1.92 1.99 2.13 2.29 2.54 2.74 2.80 2.75 2.71 2.61 2.44 2.25 2.20 2.28 2.33 2.35 2.47 2.60 2.77
0.67 0.82 0.97 0.99 1.02 0.98 0.54 0.54 0.60 0.57 0.56 0.60 0.62 0.64 0.61 0.54 0.49 0.50 0.59 0.63 0.62 0.73 0.82 0.89 1.08 1.21 1.25 1.38 1.48 1.59 1.68 1.81 2.04 2.22 2.46 2.64 2.69 2.75 2.70 2.50 2.21 2.05 2.01 2.11 2.28 2.32 2.41 2.42 2.50
0.67 0.98 1.37 1.47 1.36 0.95 0.44 0.46 0.52 0.41 0.36 0.41 0.46 0.47 0.47 0.51 0.52 0.56 0.59 0.67 0.69 0.77 0.93 1.04 1.16 1.30 1.31 1.39 1.48 1.49 1.57 1.72 1.87 1.95 2.00 2.03 2.03 2.11 2.13 2.11 2.08 1.98 1.88 1.95 2.18 2.28 2.35 2.35 2.34
0.57 0.72 1.14 1.36 1.12 0.78 0.49 0.58 0.52 0.33 0.27 0.24 0.28 0.34 0.40 0.53 0.58 0.62 0.63 0.74 0.82 0.90 1.02 1.17 1.27 1.34 1.39 1.46 1.54 1.50 1.59 1.72 1.80 1.74 1.69 1.75 1.78 1.85 1.89 1.93 1.97 1.92 1.86 1.87 1.99 2.12 2.24 2.25 2.19
0.57 0.58 0.65 0.83 0.68 0.68 0.56 0.50 0.41 0.25 0.22 0.21 0.28 0.40 0.51 0.58 0.64 0.70 0.73 0.82 0.91 0.99 1.09 1.20 1.38 1.45 1.51 1.50 1.55 1.66 1.73 1.73 1.70 1.56 1.51 1.58 1.51 1.47 1.57 1.69 1.79 1.75 1.73 1.74 1.89 2.03 2.06 2.14 2.22
0.44 0.57 0.74 0.87 0.92 0.83 0.57 0.50 0.47 0.34 0.30 0.32 0.37 0.47 0.62 0.72 0.76 0.82 0.90 0.97 1.04 1.06 1.17 1.27 1.42 1.56 1.54 1.50 1.62 1.82 1.80 1.57 1.40 1.27 1.27 1.29 1.33 1.36 1.39 1.35 1.38 1.38 1.43 1.45 1.55 1.72 1.80 1.83 1.93
0.45 0.50 0.65 0.78 0.73 0.93 1.01 0.93 0.73 0.70 0.58 0.62 0.64 0.73 0.90 0.96 0.98 0.97 1.04 1.12 1.12 1.14 1.23 1.28 1.40 1.58 1.61 1.49 1.59 1.63 1.44 1.19 1.07 1.05 1.06 1.06 1.05 1.08 1.10 1.01 1.03 1.13 1.15 1.11 1.21 1.32 1.40 1.50 1.61
0.37 0.38 0.47 0.76 0.74 0.74 1.07 1.06 0.87 0.91 0.92 1.03 1.10 1.24 1.19 1.17 1.20 1.11 1.07 1.10 1.04 1.05 1.15 1.24 1.38 1.48 1.40 1.35 1.33 1.15 0.98 0.88 0.84 0.82 0.80 0.79 0.84 0.83 0.83 0.80 0.79 0.88 1.00 1.03 1.12 1.21 1.20 1.29 1.43